TimePST,TemperatureF,Dew PointF,Humidity,Sea Level PressureIn,VisibilityMPH,Wind Direction,Wind SpeedMPH,Gust SpeedMPH,PrecipitationIn,Events,Conditions,WindDirDegrees,DateUTC
12:52 AM,50.0,33.1,52,30.00,10.0,NW,9.2,-,N/A,,Clear,310,2013-02-11 08:52:00
1:52 AM,53.1,33.1,47,30.01,10.0,WNW,12.7,-,N/A,,Clear,300,2013-02-11 09:52:00
2:52 AM,53.1,32.0,45,30.02,10.0,WNW,15.0,24.2,N/A,,Clear,300,2013-02-11 10:52:00
3:52 AM,51.1,32.0,48,30.01,10.0,NW,4.6,-,N/A,,Clear,320,2013-02-11 11:52:00
4:52 AM,48.9,33.1,54,30.03,10.0,Variable,4.6,-,N/A,,Mostly Cloudy,0,2013-02-11 12:52:00
5:52 AM,50.0,35.1,57,30.04,10.0,North,8.1,-,N/A,,Scattered Clouds,350,2013-02-11 13:52:00
6:52 AM,50.0,32.0,50,30.07,10.0,WNW,8.1,-,N/A,,Clear,300,2013-02-11 14:52:00
7:52 AM,55.0,25.0,31,30.09,10.0,WNW,10.4,-,N/A,,Clear,300,2013-02-11 15:52:00
8:52 AM,57.9,21.9,25,30.11,10.0,NNW,16.1,24.2,N/A,,Clear,330,2013-02-11 16:52:00
9:52 AM,60.1,21.0,22,30.13,10.0,North,13.8,24.2,N/A,,Clear,350,2013-02-11 17:52:00
10:52 AM,61.0,21.9,22,30.14,10.0,NNW,16.1,20.7,N/A,,Scattered Clouds,330,2013-02-11 18:52:00
11:52 AM,62.1,18.0,18,30.12,10.0,North,12.7,18.4,N/A,,Clear,360,2013-02-11 19:52:00
12:52 PM,63.0,14.0,15,30.10,10.0,NW,13.8,21.9,N/A,,Partly Cloudy,320,2013-02-11 20:52:00
1:52 PM,64.0,10.0,12,30.09,10.0,NW,12.7,21.9,N/A,,Clear,310,2013-02-11 21:52:00
2:52 PM,64.0,6.1,10,30.09,10.0,NNW,13.8,24.2,N/A,,Clear,330,2013-02-11 22:52:00
3:52 PM,64.0,6.1,10,30.10,10.0,NNW,12.7,20.7,N/A,,Clear,340,2013-02-11 23:52:00
4:52 PM,61.0,1.9,9,30.12,10.0,North,16.1,-,N/A,,Clear,350,2013-02-12 00:52:00
5:52 PM,57.0,6.1,13,30.14,10.0,North,9.2,-,N/A,,Clear,350,2013-02-12 01:52:00
6:52 PM,55.0,7.0,15,30.17,10.0,NW,5.8,-,N/A,,Clear,310,2013-02-12 02:52:00
7:52 PM,51.1,8.1,18,30.17,7.0,NW,8.1,-,N/A,,Clear,310,2013-02-12 03:52:00
8:52 PM,50.0,9.0,19,30.19,10.0,WNW,6.9,-,N/A,,Clear,290,2013-02-12 04:52:00
9:52 PM,46.9,10.0,22,30.20,10.0,North,4.6,-,N/A,,Clear,10,2013-02-12 05:52:00
10:52 PM,43.0,12.0,28,30.22,10.0,Calm,Calm,-,N/A,,Clear,0,2013-02-12 06:52:00
11:52 PM,44.1,10.0,25,30.22,10.0,NE,3.5,-,N/A,,Clear,50,2013-02-12 07:52:00